Location: Buckeye Ditch
(40.9104°N, 122.9517°W)
Time: 18:27:41
(UTC+00:00)

Vanguard 1 - Pass Details

Date: 21 May 2025
Orbit: 649 x 3822 km, 34.3° (Epoch: 15 June)

Event Time Altitude Azimuth Distance (km) Brightness Sun altitude
Rises 04:37:28 0° 270° (W) 6,489 15.1 -11.7°
Reaches altitude 10° 04:42:34 10° 266° (W) 4,959 14.3 -12.4°
Maximum altitude 04:54:35 54° 195° (SSW) 1,718 11.1 -14.1°
Enters shadow 04:59:36 20° 125° (SE) 2,321 11.3 -14.8°
